Regional Weather Roundup
Issued by NWS

Home | Current Version | Previous Version | Graphics & Text | Print | Product List | Glossary On
Versions: 1 2 3 4 5 6 7 8 9 10 11 12 13 14 15 16 17 18 19 20 21 22 23 24 25 26 27 28 29 30 31 32 33 34 35 36 37 38 39 40 41 42 43 44 45 46 47 48 49
000
ASUS43 KDMX 290407
RWRIA

WEATHER ROUNDUP FOR IOWA
NATIONAL WEATHER SERVICE DES MOINES IA
1100 PM CDT THU MAY 28 2015

NOTE: "FAIR" INDICATES FEW OR NO CLOUDS BELOW 12,000 FEET WITH NO
SIGNIFICANT WEATHER AND/OR OBSTRUCTIONS TO VISIBILITY.

* - THESE STATIONS ARE NOT NWS STATIONS...THUS NOT UNDER NWS
QUALITY CONTROL.  THEY ALSO DO NOT REPORT WEATHER SUCH
AS PRECIPITATION OR FOG.

IAZ001>003-012>014-020>022-031>034-043>046-290500-
   NORTHWEST IOWA

CITY           SKY/WX    TMP DP  RH WIND       PRES   REMARKS
CARROLL *      CLOUDY    66  64  94 S7        29.96S
CHEROKEE *     CLOUDY    66  64  94 S8        29.93F
DENISON *      CLOUDY    66  66 100 S7        29.93F
LE MARS *      CLOUDY    68  64  88 SE10G16   29.91F
ORANGE CITY *  CLEAR     64  63  94 S8        29.92F
SHELDON *      PTCLDY    64  64 100 S12       29.91F
SIOUX CITY     CLOUDY    68  62  81 SE10      29.91F
SPENCER        CLOUDY    67  62  84 S13       29.94F
STORM LAKE *   CLOUDY    66  63  88 S8        29.96F
$$

IAZ055>058-069>071-079>083-090>094-290500-
   SOUTHWEST IOWA

CITY           SKY/WX    TMP DP  RH WIND       PRES   REMARKS
ATLANTIC *     PTCLDY    68  64  88 S10       29.95F
AUDUBON *      CLEAR     66  63  88 S5        29.97S
CLARINDA *     CLEAR     66  64  94 S6        29.99S
COUNCIL BLFS * CLOUDY    66  66 100 SE9       29.95F
CRESTON *      CLEAR     64  64 100 SE5       29.98F
HARLAN  *        N/A     66  66 100 S7        29.98F
LAMONI         MOCLDY    69  63  81 S9        29.99S
RED OAK *      PTCLDY    66  64  94 SE9       29.96F
SHENANDOAH *   CLEAR     66  64  94 SE12      29.96F
$$

IAZ047>049-059>061-072>074-084-290500-
   CENTRAL IOWA

CITY           SKY/WX    TMP DP  RH WIND       PRES   REMARKS
AMES           MOCLDY    67  62  84 SE7       29.97S
ANKENY *       CLEAR     66  64  94 S7        29.97F
CHARITON *     CLOUDY    66  64  94 S7        30.00R
DES MOINES     MOCLDY    67  63  87 SE6       29.97S
GRINNELL*      CLOUDY    64  63  94 S9        29.99S
KNOXVILLE *    CLOUDY    64  63  94 S7        29.97S
MARSHALLTOWN   CLOUDY    66  62  87 S8        29.98R
PELLA *        CLOUDY    64  64 100 S7        30.00R
PERRY *          N/A     65  63  91 S7        29.96F
$$

IAZ004>006-015-016-023>025-035-036-290500-
   NORTH CENTRAL IOWA

CITY           SKY/WX    TMP DP  RH WIND       PRES   REMARKS
ALGONA *       CLOUDY    68  63  83 S9        29.97S
CLARION *      CLOUDY    68  61  77 S14G20    29.96F
ESTHERVILLE    CLOUDY    66  61  84 S13       29.94F
FORT DODGE *   CLOUDY    68  61  77 S8        29.97S
MASON CITY     CLOUDY    70  60  70 S13       29.98S
FOREST CITY *  CLOUDY    68  59  73 S9        29.97F
IOWA FALLS *   CLOUDY    66  61  82 S7        29.98F
$$

IAZ007>011-017>019-026>030-037>042-050>054-066-290500-
   NORTHEAST IOWA

CITY           SKY/WX    TMP DP  RH WIND       PRES   REMARKS
CEDAR RAPIDS   CLOUDY    66  63  90 SE6       29.99F
CHARLES CITY * CLOUDY    68  59  73 S7        29.99F
CLINTON *      CLEAR     66  55  68 SW8       30.06R
DECORAH *      MOCLDY    70  52  52 S6        29.99S
DUBUQUE        CLEAR     64  54  69 S6        30.02R
MONTICELLO *   PTCLDY    68  63  83 S6        30.00F
OELWEIN *      MOCLDY    68  59  73 S9        30.00S
WATERLOO       CLOUDY    68  60  75 S9        29.98R
$$

IAZ064-065-067-068-078-290500-
   EAST CENTRAL IOWA

CITY           SKY/WX    TMP DP  RH WIND       PRES   REMARKS
DAVENPORT      PTCLDY    68  59  73 SW5       30.03S
IOWA CITY      CLOUDY    66  63  90 SE6       30.01F
MT. PLEASANT * CLOUDY    64  63  94 SE3       30.01S
MUSCATINE *    CLEAR     68  63  83 CALM      30.02S
QUAD CITIES    PTCLDY    67  59  75 SW5       30.03R
$$

IAZ062-063-075>077-085>089-095>099-290500-
   SOUTHEAST IOWA

CITY           SKY/WX    TMP DP  RH WIND       PRES   REMARKS
BURLINGTON     PTCLDY    65  63  93 CALM      30.01F
FAIRFIELD *    CLOUDY    64  63  94 S6        30.01S
FORT MADISON * CLEAR     64  63  94 SE3       30.02F
KEOKUK *       CLEAR     64  64 100 SE3       30.01S
OSKALOOSA *      N/A     64  63  94 S8        29.99F
CENTERVILLE *  CLEAR     64  64 100 SE9       30.02S
OTTUMWA        CLOUDY    65  63  93 S12       29.99S
WASHINGTON *   MOCLDY    64  64 100 SE5       30.02S
$$

ABBREVIATIONS USED IN REMARKS
   TC - TEMPERATURES IN CELSIUS
  WCI - WIND CHILL INDEX
   HX - HEAT INDEX
  VSB - VISIBILITY
$$




USA.gov is the U.S. government's official web portal to all federal, state and local government web resources and services.